Location: Palomar Mountain Lodge
(33.3110°N, 116.8495°W)
Time: 19:51:46
(UTC-07:00)

Daily predictions for brighter satellites

Satellite Brightness Start Highest point End
(mag) Time Altitude Azimuth Time Altitude Azimuth Time Altitude Azimuth
Cosmos 1953 2.3 20:23:07 10° N 20:27:05 65° E 20:31:02 10° SSE
Cosmos 1655 Rocket 4.0 20:20:51 10° N 20:27:06 77° E 20:33:18 10° S
Aurora 2 Rocket 4.3 20:23:19 10° SW 20:28:07 30° SSE 20:34:35 10° ESE
Envisat 3.6 20:24:48 10° S 20:29:46 59° W 20:34:47 10° NNW
Cosmos 972 4.3 20:28:00 10° S 20:33:00 75° ESE 20:37:51 10° NNE
Cosmos 1943 3.2 20:30:28 10° NNW 20:36:08 82° ENE 20:41:45 10° SSE
Cosmos 1626 Rocket 4.3 20:33:24 10° SSW 20:37:46 57° W 20:42:09 10° N
SJ-6B 3.8 20:34:43 10° S 20:38:29 49° W 20:42:20 10° NNW
Cosmos 1048 Rocket 4.1 20:38:01 10° S 20:43:12 61° ESE 20:48:28 10° NNE
Cosmos 1607 4.0 20:39:30 10° NNW 20:45:53 84° ENE 20:52:06 10° SSE
Meteor 2-11 Rocket 4.4 20:40:15 10° S 20:46:17 80° E 20:52:22 10° N
Cosmos 1400 Rocket 3.0 20:43:46 10° S 20:47:48 78° W 20:51:48 10° N
USA 215 3.7 20:43:26 10° ESE 20:49:46 54° NE 20:56:07 10° NNW
CZ-3 Stage 3 3.1 20:47:29 10° WSW 20:50:25 61° SSE 21:01:20 10° E
Resurs 1-3 3.6 20:47:41 10° SSE 20:52:03 86° ENE 20:56:27 10° N
Cosmos 1844 Rocket 3.0 20:48:32 10° S 20:53:51 44° ESE 20:59:12 10° NE
Centaur AC-125 3.4 20:53:06 10° SW 20:55:35 16° S 20:56:28 14° SSE
NOAA 11 4.2 20:50:32 10° SSE 20:55:55 74° ENE 21:01:19 10° N
Cosmos 1844 4.3 20:52:09 10° SSE 20:57:14 35° ESE 21:02:22 10° NE
Cosmos 1470 3.6 20:54:23 10° NNW 20:58:10 50° W 21:01:57 10° S
Cosmos 1346 Rocket 4.4 20:56:43 10° NNE 20:59:41 20° ENE 21:01:27 15° ESE
Cosmos 1812 Rocket 3.7 20:55:36 10° N 20:59:57 77° W 21:04:19 10° S
YAOGAN 6 4.3 20:59:06 10° SSW 21:02:15 30° W 21:05:23 10° NW
Aureole 1 Rocket 3.0 21:00:28 10° SSW 21:03:27 57° WNW 21:06:57 10° N
USA 186 3.7 21:00:50 10° SSW 21:03:41 28° W 21:06:27 10° NW
Cosmos 1953 Rocket 3.7 21:00:15 10° SSE 21:04:26 51° E 21:08:40 10° NNE
Spot 2 Rocket 3.4 20:59:56 10° SSE 21:04:57 78° ENE 21:10:00 10° N
Cosmos 1758 Rocket 3.5 21:05:16 10° S 21:09:42 77° E 21:14:07 10° N
Cosmos 1452 Rocket 3.6 21:05:03 10° NNW 21:10:21 82° WSW 21:15:09 12° SSE
Cosmos 1420 Rocket 3.9 21:05:28 10° NNW 21:10:39 87° ENE 21:15:02 15° SSE
Meteor 1-24 Rocket 3.9 21:05:18 10° S 21:11:11 60° E 21:17:07 10° NNE
OAO 3 Copernicus 4.3 21:08:06 10° WNW 21:13:11 85° SSW 21:16:53 19° ESE
Cosmos 1932 4.4 21:10:38 10° NNW 21:16:51 80° ENE 21:21:21 20° SSE
Resurs 01 Rocket 2.4 21:13:36 10° S 21:17:51 49° W 21:22:09 10° NNW
OAO 3 Rocket 3.4 21:17:07 10° W 21:22:04 72° N 21:26:27 13° E
Cosmos 1908 4.4 21:21:41 10° NNE 21:24:54 25° ENE 21:25:38 23° E
Meteor 2-5 Rocket 4.4 21:23:37 10° SSW 21:29:28 60° W 21:35:18 10° N
H-2A R/B 2.3 21:30:37 25° SE 21:33:34 58° ENE 21:38:50 10° N
Cosmos 1340 4.4 21:32:25 10° NNE 21:35:05 18° ENE 21:35:08 18° ENE
Cosmos 921 Rocket 3.7 21:32:36 10° N 21:36:49 40° ENE 21:38:12 31° ESE
SPOT 5 4.2 21:36:22 23° E 21:38:04 28° ENE 21:42:27 10° NNE
Cosmos 1238 Rocket 3.0 21:37:14 18° SSW 21:39:07 47° W 21:41:59 10° N
Iridium 18 4.5 21:38:53 48° ESE 21:39:13 50° E 21:42:43 10° NNE
Cosmos 494 Rocket 3.9 21:35:43 10° SSW 21:40:55 83° ESE 21:46:12 10° NNE
ATLAS 3B R/B 3.8 21:36:45 10° N 21:42:27 30° NE 21:45:53 19° E
Cosmos 1674 2.5 21:42:52 36° S 21:44:20 79° E 21:48:09 10° N
USA 238 DEB 4.4 21:37:44 10° NNW 21:44:31 44° NE 21:48:21 25° ESE
USA 238 4.4 21:37:50 10° NNW 21:44:37 43° NE 21:48:27 25° ESE
Lacrosse 5 4.3 21:40:37 10° W 21:44:42 24° NW 21:48:49 10° NNE
SL-08 RB Rocket 3.7 21:45:38 34° SSE 21:47:39 79° ENE 21:52:19 10° N
MetOp-B 4.1 21:46:03 30° SSE 21:48:50 82° ENE 21:54:12 10° N
Cosmos 1461 3.4 21:48:41 41° SE 21:49:15 43° ESE 21:53:42 10° NE
Meteor 2-1 Rocket 4.5 21:44:15 10° N 21:50:04 56° E 21:52:27 34° SE
Cosmos 1244 Rocket 4.5 21:52:09 10° N 21:58:32 88° W 22:02:04 28° S
Centaur D-1AR AC-36 3.6 21:49:17 10° W 21:59:29 25° SSW 22:00:57 22° S
Cosmos 220 Rocket 3.8 21:58:55 50° S 21:59:53 73° ESE 22:04:06 10° NNE
Cosmos 1745 Rocket 4.3 21:55:12 10° N 22:01:15 48° E 22:03:09 37° SE
SEDSat Delta rocket 3.6 21:56:34 10° SW 22:01:13 42° S 22:01:13 42° S
DMSP B5D2-2 3.9 21:57:07 10° NNE 22:02:22 81° ESE 22:04:53 32° S
Cosmos 1726 2.3 21:59:40 10° N 22:03:12 54° ENE 22:03:12 54° ENE
SL-08 R/B 4.4 21:59:50 10° N 22:05:59 68° E 22:08:16 40° SSE
ATLAS 2AS CENTAUR R/B 4.1 21:59:55 10° SW 22:07:19 47° NW 22:15:04 10° NNE
ERS-1 Rocket 2.9 22:06:45 44° SSE 22:08:23 88° WSW 22:13:27 10° NNW
Meteor 2-10 4.2 22:04:37 10° N 22:10:03 64° E 22:11:28 47° SE
Cosmos 2251 Rocket 3.4 22:11:51 37° S 22:14:01 82° ESE 22:19:20 10° NNE
Landsat 7 4.0 22:16:59 51° E 22:17:24 53° ENE 22:22:01 10° N
Cosmos 2278 Rocket 2.1 22:16:23 40° S 22:18:27 76° ESE 22:24:07 10° NNE
Cosmos-2242 4.2 22:16:20 10° NNW 22:20:23 37° W 22:21:58 28° SW
Cosmos 2084 3.7 22:17:10 10° NW 22:20:45 50° WSW 22:20:45 50° WSW
Meteor 1-21 Rocket 4.2 22:19:01 43° S 22:21:05 82° E 22:26:55 10° N
ARGOS 4.3 22:18:08 22° SSW 22:21:05 38° W 22:26:07 10° NNW
Aurora 2 Rocket 4.2 22:15:07 10° WSW 22:21:34 46° S 22:23:22 41° SE
S3M 4.1 22:19:53 28° SSW 22:23:24 76° W 22:29:48 10° N
CZ-2C R/B 3.9 22:25:43 38° E 22:26:33 40° ENE 22:31:54 10° N
SL-14 R/B 3.6 22:29:02 58° NNE 22:29:02 58° NNE 22:32:15 10° N
Helios 1A 3.0 22:32:09 79° WNW 22:32:09 79° WNW 22:36:11 10° NNW
USA 215 4.2 22:30:40 29° SSW 22:32:49 35° SW 22:38:43 10° WNW
Cosmos 1709 Rocket 4.4 22:28:46 10° N 22:34:37 42° E 22:35:09 41° E
ATLAS 3B CENTAUR R/B 3.6 22:17:07 10° WSW 22:34:52 52° S 22:37:27 42° SE
Cosmos 1842 Rocket 3.5 22:31:38 10° N 22:35:49 77° WNW 22:35:49 77° WNW
Terra 2.1 22:37:00 54° ENE 22:37:00 54° ENE 22:41:26 10° N
COSMOS 2406 3.2 22:32:48 10° NNW 22:38:34 76° WSW 22:39:30 61° S
Helios 1B rocket 2.7 22:37:22 10° N 22:41:10 64° NW 22:41:10 64° NW
NOSS 2-2 (E) 4.3 22:44:22 42° NNE 22:44:22 42° NNE 22:47:15 10° NNE
NOSS 3-4 (A) 3.7 22:39:15 14° SW 22:44:37 68° WNW 22:50:55 10° NNE
NOSS 3-4 (C) 3.6 22:39:34 15° SW 22:44:41 69° WNW 22:51:00 10° NNE
CENTAUR R/B 4.3 22:43:31 10° NNW 22:50:34 32° NE 22:54:21 23° E
Cosmos 1375 Rocket 4.4 22:44:30 10° NNW 22:51:06 82° ENE 22:52:04 66° SE
ATLAS 5 CENTAUR R/B 2.0 22:57:11 61° NNW 22:57:11 61° NNW 23:01:24 10° NNE
Okean 3 Rocket 4.5 23:01:11 44° NNE 23:01:11 44° NNE 23:04:13 10° N
Cosmos 1626 3.9 23:02:05 30° N 23:02:05 30° N 23:04:05 10° N
Cosmos 2297 4.0 23:02:34 55° ENE 23:02:34 55° ENE 23:07:18 10° NNE
Cosmos 2315 Rocket 3.9 23:04:20 71° SSW 23:05:06 86° W 23:11:28 10° N
OAO 3 Rocket 4.0 23:00:48 10° WNW 23:04:14 45° W 23:04:14 45° W
Cosmos 2221 3.5 23:05:44 10° NNW 23:08:55 45° NW 23:08:55 45° NW
Cosmos 2082 Rocket 3.0 23:05:43 10° N 23:10:56 40° ENE 23:10:56 40° ENE
H-2A R/B 4.4 23:11:15 11° WSW 23:13:18 14° W 23:15:56 10° WNW
Cosmos 1833 Rocket 3.2 23:08:17 10° N 23:13:23 47° NE 23:13:23 47° NE
SPOT 5 4.4 23:15:36 28° WSW 23:15:58 28° W 23:20:24 10° NW
RESURS DK-1 4.2 23:20:00 27° NNE 23:20:00 27° NNE 23:21:57 10° NNE
CZ-2C R/B 2.8 23:16:17 10° N 23:21:22 70° NW 23:21:22 70° NW
ATLAS 3B R/B 3.1 23:27:02 10° NW 23:33:08 44° WSW 23:33:08 44° WSW
EO 1 Delta rocket 4.5 23:29:30 10° N 23:35:32 66° WNW 23:35:32 66° WNW
NOSS 3-2 (A) 4.4 23:40:21 10° NW 23:47:51 49° WSW 23:48:27 48° SW
